Tracking 26325 objects as of 28-Nov-2022
HD Live streaming from Space Station
objects crossing your sky now

WESTFORD NEEDLES

Track WESTFORD NEEDLES now!
10-day predictions
WESTFORD NEEDLES is classified as:


NORAD ID: 2375
Int'l Code: 1963-014W
Perigee: 1,805.0 km
Apogee: 5,341.6 km
Inclination: 86.3 °
Period: 164.5 minutes
Semi major axis: 9944 km
RCS: 0.1605 m2 (medium)
Launch date: May 9, 1963
Source: United States (US)
Launch site: AIR FORCE WESTERN TEST RANGE (AFWTR)
aabbcc
Your satellite tracking list
Your tracking list is empty




NASA's NSSDC Master Catalog

Two Line Element Set (TLE):
1  2375U 63014W   22331.43778269 -.00002166  00000-0 -18351+0 0  9992
2  2375  86.2764 233.2007 1778176 179.2180 181.2171  8.75470615821616
Source of the keplerian elements: AFSPC